Alabaster, AL

4:27 AM CDT on July 25, 2017 (GMT -0500)
Shelby County

Weather History for KEET - July, 2013

Change the Weather History Date:

Saturday, July 13, 2013

  Actual Average Record
Temperature  
Mean Temperature 78 °F 81 °F  
Max Temperature 85 °F 91 °F 104 °F (1980)
Min Temperature 70 °F 71 °F 58 °F (1961)
Cooling Degree Days 13 16  
Month to date cooling degree days 160 200  
Year to date cooling degree days 824 843  
Since 1 June cooling degree days 572 574  
Growing Degree Days 27 (Base 50)    
Moisture  
Dew Point 69 °F    
Average Humidity 78    
Maximum Humidity 90    
Minimum Humidity 65    
Precipitation  
Precipitation 0.00 in 0.16 in 2.25 in (1949)
Month to date precipitation 4.36 2.00  
Year to date precipitation 38.06 30.56  
Sea Level Pressure  
Sea Level Pressure 29.97 in    
Wind  
Wind Speed 2 mph (East)    
Max Wind Speed 10 mph    
Max Gust Speed 16 mph    
Visibility 9 miles    
Events      
T = Trace of Precipitation, MM = Missing Value Source: NWS Daily Summary

Daily Weather History Graph

Daily Weather History Graph

Search for Another Location

Airport or City:

Trip Planner

Search our weather history database for the weather conditions in past years. The results will help you decide how hot, cold, wet, or windy it might be!

Date:

Astronomy

Jul. 13, 2013 Rise Set
Actual Time 5:47 AM CDT 7:57 PM CDT
Civil Twilight 5:19 AM CDT 8:25 PM CDT
Nautical Twilight 4:45 AM CDT 9:00 PM CDT
Astronomical Twilight 4:08 AM CDT 9:37 PM CDT
Moon 10:44 AM CDT (7/13) 10:58 PM CDT (7/13)
Length of Visible Light 15h 06m
Length of Day
14h 09m
Waxing Crescent, 26% of the Moon is Illuminated
Jul 13
Waxing Crescent
Jul 15
First Quarter
Jul 22
Full
Jul 29
Last Quarter
Aug 6
New

Hourly Weather History & Observations

Time (CDT) Temp. Heat Index Dew Point Humidity Pressure Visibility Wind Dir Wind Speed Gust Speed Precip Events Conditions
12:53 AM 75.0 °F - 66.9 °F 76% 29.92 in 10.0 mi Calm Calm - N/A   Clear
1:53 AM 72.0 °F - 68.0 °F 87% 29.92 in 8.0 mi Calm Calm - N/A   Clear
2:53 AM 72.0 °F - 66.9 °F 84% 29.92 in 9.0 mi Calm Calm - N/A   Clear
3:53 AM 71.1 °F - 66.0 °F 84% 29.91 in 9.0 mi Calm Calm - N/A   Clear
4:53 AM 71.1 °F - 66.0 °F 84% 29.91 in 8.0 mi Calm Calm - N/A   Clear
5:53 AM 70.0 °F - 66.0 °F 87% 29.93 in 7.0 mi Calm Calm - N/A   Clear
6:53 AM 72.0 °F - 66.0 °F 81% 29.94 in 8.0 mi Calm Calm - N/A   Clear
7:53 AM 73.9 °F - 66.9 °F 79% 29.96 in 8.0 mi ENE 3.5 mph - N/A   Clear
8:53 AM 75.0 °F - 69.1 °F 82% 29.97 in 8.0 mi Calm Calm - N/A   Mostly Cloudy
9:53 AM 77.0 °F - 70.0 °F 79% 29.98 in 8.0 mi Variable 4.6 mph - N/A   Overcast
10:53 AM 77.0 °F - 70.0 °F 79% 29.99 in 8.0 mi SE 4.6 mph - N/A   Overcast
11:20 AM 80.6 °F 84.6 °F 71.6 °F 74% 30.00 in 8.0 mi ESE 4.6 mph - N/A   Mostly Cloudy
11:53 AM 81.0 °F 84.9 °F 71.1 °F 72% 29.99 in 10.0 mi Calm Calm - N/A   Overcast
12:40 PM 82.4 °F 87.2 °F 71.6 °F 70% 30.00 in 10.0 mi NE 3.5 mph - N/A   Mostly Cloudy
12:53 PM 82.9 °F 87.5 °F 71.1 °F 67% 29.97 in 10.0 mi NE 3.5 mph - N/A   Mostly Cloudy
1:53 PM 84.0 °F 89.0 °F 71.1 °F 65% 29.95 in 9.0 mi Calm Calm - N/A   Scattered Clouds
2:53 PM 81.0 °F 84.4 °F 70.0 °F 69% 29.95 in 10.0 mi East 5.8 mph - N/A   Mostly Cloudy
3:53 PM 81.0 °F 84.4 °F 70.0 °F 69% 29.95 in 10.0 mi Calm Calm - N/A   Clear
4:53 PM 79.0 °F - 73.0 °F 82% 29.94 in 10.0 mi Calm Calm - N/A   Clear
5:53 PM 80.1 °F 83.8 °F 72.0 °F 76% 29.94 in 10.0 mi Calm Calm - N/A   Clear
6:53 PM 81.0 °F 85.8 °F 73.0 °F 77% 29.95 in 10.0 mi Calm Calm - N/A   Partly Cloudy
7:53 PM 77.0 °F - 70.0 °F 79% 29.97 in 10.0 mi SE 5.8 mph - N/A   Clear
8:53 PM 75.0 °F - 68.0 °F 79% 29.99 in 10.0 mi East 5.8 mph - N/A   Clear
9:53 PM 73.0 °F - 66.9 °F 81% 30.01 in 10.0 mi Variable 3.5 mph - N/A   Clear
10:48 PM 71.6 °F - 66.2 °F 83% 30.04 in 10.0 mi Variable 3.5 mph - N/A   Mostly Cloudy
10:53 PM 72.0 °F - 66.9 °F 84% 30.03 in 10.0 mi Variable 3.5 mph - N/A   Mostly Cloudy
11:25 PM 71.6 °F - 68.0 °F 88% 30.05 in 10.0 mi Variable 3.5 mph - N/A   Scattered Clouds
11:53 PM 72.0 °F - 68.0 °F 87% 30.03 in 10.0 mi Calm Calm - N/A   Clear